| time (UTC) | temp C | wind direction | speed KPH | gust KPH | rain 1hr cm | rain 24hr cm | rain mn cm | humidity % | barometer mb |
| 20260510175437 | 26 | 277 | 1.6 | 12.9 | 0.00 | 0.00 | 0.00 | 49 | 1012.0 |
| 20260510174934 | 27 | 317 | 6.4 | 9.7 | 0.00 | 0.00 | 0.00 | 49 | 1011.9 |
| 20260510174434 | 27 | 230 | 4.8 | 17.7 | 0.00 | 0.00 | 0.00 | 48 | 1012.0 |
| 20260510173940 | 27 | 334 | 11.3 | 17.7 | 0.00 | 0.00 | 0.00 | 48 | 1012.0 |
| 20260510173437 | 27 | 213 | 1.6 | 8.0 | 0.00 | 0.00 | 0.00 | 48 | 1011.9 |
| 20260510172937 | 26 | 153 | 6.4 | 19.3 | 0.00 | 0.00 | 0.00 | 48 | 1012.0 |
| 20260510172440 | 27 | 351 | 19.3 | 19.3 | 0.00 | 0.00 | 0.00 | 47 | 1011.9 |
| 20260510171934 | 26 | 269 | 4.8 | 11.3 | 0.00 | 0.00 | 0.00 | 50 | 1012.0 |
| 20260510171437 | 25 | 147 | 1.6 | 12.9 | 0.00 | 0.00 | 0.00 | 50 | 1011.9 |
| 20260510170934 | 27 | 310 | 16.1 | 16.1 | 0.00 | 0.00 | 0.00 | 50 | 1012.0 |
| 20260510170434 | 25 | 305 | 0.0 | 11.3 | 0.00 | 0.00 | 0.00 | 53 | 1011.9 |
| 20260510165937 | 25 | 252 | 0.0 | 11.3 | 0.00 | 0.00 | 0.00 | 55 | 1012.0 |
| 20260510165434 | 25 | 257 | 4.8 | 12.9 | 0.00 | 0.00 | 0.00 | 52 | 1012.1 |
| 20260510164937 | 25 | 278 | 0.0 | 11.3 | 0.00 | 0.00 | 0.00 | 54 | 1012.1 |
| 20260510164440 | 25 | 181 | 1.6 | 16.1 | 0.00 | 0.00 | 0.00 | 54 | 1012.1 |
| 20260510163934 | 25 | 24 | 4.8 | 6.4 | 0.00 | 0.00 | 0.00 | 55 | 1012.1 |
| 20260510163440 | 25 | 199 | 0.0 | 6.4 | 0.00 | 0.00 | 0.00 | 59 | 1012.1 |
| 20260510162937 | 23 | 320 | 9.7 | 16.1 | 0.00 | 0.00 | 0.00 | 60 | 1012.1 |
| 20260510162435 | 24 | 304 | 16.1 | 11.3 | 0.00 | 0.00 | 0.00 | 61 | 1012.1 |
| 20260510161937 | 23 | 314 | 14.5 | 14.5 | 0.00 | 0.00 | 0.00 | 60 | 1012.1 |
| 20260510161434 | 23 | 208 | 0.0 | 9.7 | 0.00 | 0.00 | 0.00 | 63 | 1012.1 |
| 20260510160937 | 22 | 236 | 0.0 | 11.3 | 0.00 | 0.00 | 0.00 | 66 | 1012.2 |
| 20260510160437 | 22 | 324 | 6.4 | 9.7 | 0.00 | 0.00 | 0.00 | 64 | 1012.3 |
| 20260510155940 | 23 | 201 | 4.8 | 6.4 | 0.00 | 0.00 | 0.00 | 63 | 1012.3 |
| 20260510155434 | 23 | 286 | 0.0 | 9.7 | 0.00 | 0.00 | 0.00 | 68 | 1012.3 |
| 20260510154934 | 22 | 290 | 4.8 | 9.7 | 0.00 | 0.00 | 0.00 | 66 | 1012.4 |
| 20260510154437 | 22 | 285 | 14.5 | 12.9 | 0.00 | 0.00 | 0.00 | 67 | 1012.5 |
| 20260510153940 | 21 | 131 | 4.8 | 9.7 | 0.00 | 0.00 | 0.00 | 69 | 1012.6 |
| 20260510153440 | 21 | 163 | 11.3 | 9.7 | 0.00 | 0.00 | 0.00 | 67 | 1012.5 |
| 20260510152943 | 21 | 221 | 0.0 | 6.4 | 0.00 | 0.00 | 0.00 | 71 | 1012.5 |
| 20260510152437 | 21 | 156 | 1.6 | 8.0 | 0.00 | 0.00 | 0.00 | 71 | 1012.6 |
| 20260510151937 | 21 | 171 | 4.8 | 3.2 | 0.00 | 0.00 | 0.00 | 71 | 1012.7 |
| 20260510151440 | 21 | 198 | 0.0 | 4.8 | 0.00 | 0.00 | 0.00 | 72 | 1012.7 |
| 20260510150934 | 20 | 201 | 1.6 | 6.4 | 0.00 | 0.00 | 0.00 | 77 | 1012.6 |
| 20260510150434 | 17 | 257 | 0.0 | 9.7 | 0.00 | 0.00 | 0.00 | 81 | 1012.7 |
| 20260510145937 | 18 | 290 | 11.3 | 9.7 | 0.00 | 0.00 | 0.00 | 75 | 1012.6 |
| 20260510145438 | 20 | 233 | 0.0 | 9.7 | 0.00 | 0.00 | 0.00 | 75 | 1012.7 |
| 20260510144937 | 19 | 259 | 0.0 | 4.8 | 0.00 | 0.00 | 0.00 | 74 | 1012.6 |
| 20260510144434 | 18 | 165 | 1.6 | 4.8 | 0.00 | 0.00 | 0.00 | 82 | 1012.7 |
| 20260510143935 | 18 | 164 | 0.0 | 8.0 | 0.00 | 0.00 | 0.00 | 79 | 1012.6 |
| 20260510143434 | 18 | 211 | 0.0 | 3.2 | 0.00 | 0.00 | 0.00 | 80 | 1012.7 |
| 20260510142937 | 17 | 195 | 1.6 | 6.4 | 0.00 | 0.00 | 0.00 | 84 | 1012.8 |
| 20260510142435 | 15 | 273 | 1.6 | 3.2 | 0.00 | 0.00 | 0.00 | 87 | 1012.7 |
| 20260510141934 | 16 | 248 | 1.6 | 3.2 | 0.00 | 0.00 | 0.00 | 86 | 1012.7 |
| 20260510141437 | 15 | 280 | 1.6 | 1.6 | 0.00 | 0.00 | 0.00 | 85 | 1012.7 |
| 20260510140935 | 16 | 280 | 0.0 | 3.2 | 0.00 | 0.00 | 0.00 | 89 | 1012.7 |
| 20260510140440 | 15 | 281 | 0.0 | 3.2 | 0.00 | 0.00 | 0.00 | 90 | 1012.6 |
| 20260510135934 | 15 | 344 | 0.0 | 1.6 | 0.00 | 0.00 | 0.00 | 93 | 1012.6 |
| 20260510135435 | 14 | 311 | 0.0 | 4.8 | 0.00 | 0.00 | 0.00 | 93 | 1012.6 |
| 20260510134937 | 13 | 128 | 0.0 | 3.2 | 0.00 | 0.00 | 0.00 | 94 | 1012.6 |
| 20260510134440 | 13 | 20 | 0.0 | 4.8 | 0.00 | 0.00 | 0.00 | 94 | 1012.4 |
| 20260510133934 | 13 | 335 | 6.4 | 8.0 | 0.00 | 0.00 | 0.00 | 94 | 1012.4 |
| 20260510133434 | 13 | 17 | 4.8 | 3.2 | 0.00 | 0.00 | 0.00 | 95 | 1012.5 |
| 20260510132934 | 13 | 13 | 0.0 | 3.2 | 0.00 | 0.00 | 0.00 | 94 | 1012.6 |
| 20260510132434 | 13 | 63 | 0.0 | 3.2 | 0.00 | 0.00 | 0.00 | 96 | 1012.7 |
| 20260510131940 | 13 | 113 | 0.0 | 1.6 | 0.00 | 0.00 | 0.00 | 96 | 1012.7 |
| 20260510131437 | 13 | 340 | 0.0 | 3.2 | 0.00 | 0.00 | 0.00 | 96 | 1012.6 |
| 20260510130934 | 12 | 338 | 0.0 | 1.6 | 0.00 | 0.00 | 0.00 | 96 | 1012.6 |
| 20260510130434 | 12 | 291 | 0.0 | 4.8 | 0.00 | 0.00 | 0.00 | 96 | 1012.6 |
| 20260510125934 | 12 | 301 | 0.0 | 4.8 | 0.00 | 0.00 | 0.00 | 96 | 1012.6 |
| 20260510125434 | 12 | 312 | 1.6 | 4.8 | 0.00 | 0.00 | 0.00 | 96 | 1012.5 |
| 20260510124937 | 12 | 173 | 1.6 | 3.2 | 0.00 | 0.00 | 0.00 | 96 | 1012.3 |
| 20260510124434 | 12 | 181 | 1.6 | 1.6 | 0.00 | 0.00 | 0.00 | 96 | 1012.3 |
| 20260510123938 | 12 | 186 | 0.0 | 1.6 | 0.00 | 0.00 | 0.00 | 96 | 1012.2 |
| 20260510123440 | 12 | 298 | 0.0 | 3.2 | 0.00 | 0.00 | 0.00 | 96 | 1012.2 |
| 20260510122937 | 12 | 317 | 4.8 | 3.2 | 0.00 | 0.00 | 0.00 | 96 | 1012.0 |
| 20260510122440 | 12 | 137 | 1.6 | 3.2 | 0.00 | 0.00 | 0.00 | 96 | 1011.9 |
| 20260510121937 | 12 | 355 | 0.0 | 3.2 | 0.00 | 0.00 | 0.00 | 96 | 1012.1 |
| 20260510121437 | 11 | 340 | 1.6 | 3.2 | 0.00 | 0.00 | 0.00 | 96 | 1012.3 |
| 20260510120937 | 11 | 14 | 0.0 | 1.6 | 0.00 | 0.00 | 0.00 | 96 | 1012.1 |
| 20260510120434 | 11 | 5 | 1.6 | 3.2 | 0.00 | 0.00 | 0.00 | 96 | 1012.1 |
| 20260510115934 | 11 | 320 | 0.0 | 3.2 | 0.00 | 0.00 | 0.00 | 96 | 1012.1 |
| 20260510115443 | 11 | 323 | 1.6 | 3.2 | 0.00 | 0.00 | 0.00 | 96 | 1011.8 |
| 20260510114934 | 11 | 59 | 0.0 | 3.2 | 0.00 | 0.00 | 0.00 | 96 | 1011.8 |
| 20260510114438 | 11 | 59 | 1.6 | 3.2 | 0.00 | 0.00 | 0.00 | 96 | 1011.6 |
| 20260510113934 | 11 | 15 | 0.0 | 6.4 | 0.00 | 0.00 | 0.00 | 96 | 1011.8 |
| 20260510113435 | 11 | 12 | 0.0 | 3.2 | 0.00 | 0.00 | 0.00 | 96 | 1011.7 |
| 20260510112934 | 11 | 28 | 0.0 | 1.6 | 0.00 | 0.00 | 0.00 | 96 | 1011.9 |
| 20260510112434 | 11 | 334 | 0.0 | 6.4 | 0.00 | 0.00 | 0.00 | 96 | 1011.8 |
| 20260510111934 | 11 | 355 | 0.0 | 4.8 | 0.00 | 0.00 | 0.00 | 96 | 1011.7 |
| 20260510111437 | 11 | 349 | 0.0 | 6.4 | 0.00 | 0.00 | 0.00 | 96 | 1011.7 |
| 20260510110934 | 11 | 310 | 4.8 | 6.4 | 0.00 | 0.00 | 0.00 | 96 | 1011.6 |
| 20260510110437 | 11 | 0 | 0.0 | 4.8 | 0.00 | 0.00 | 0.00 | 96 | 1011.5 |
| 20260510105934 | 11 | 74 | 0.0 | 0.0 | 0.00 | 0.00 | 0.00 | 96 | 1011.3 |
| 20260510105434 | 11 | 329 | 0.0 | 1.6 | 0.00 | 0.00 | 0.00 | 96 | 1011.4 |
| 20260510104940 | 10 | 53 | 0.0 | 3.2 | 0.00 | 0.00 | 0.00 | 96 | 1011.3 |
| 20260510104434 | 10 | 49 | 1.6 | 3.2 | 0.00 | 0.00 | 0.00 | 96 | 1011.2 |
| 20260510103937 | 10 | 246 | 0.0 | 3.2 | 0.00 | 0.00 | 0.00 | 96 | 1011.3 |
| 20260510103435 | 10 | 284 | 0.0 | 3.2 | 0.00 | 0.00 | 0.00 | 96 | 1011.4 |
| 20260510102937 | 10 | 285 | 0.0 | 3.2 | 0.00 | 0.00 | 0.00 | 96 | 1011.2 |
| 20260510102440 | 10 | 319 | 0.0 | 6.4 | 0.00 | 0.00 | 0.00 | 96 | 1011.0 |
| 20260510101940 | 10 | 36 | 4.8 | 4.8 | 0.00 | 0.00 | 0.00 | 96 | 1011.0 |
| 20260510101437 | 10 | 126 | 4.8 | 4.8 | 0.00 | 0.00 | 0.00 | 96 | 1011.1 |
| 20260510100937 | 10 | 328 | 0.0 | 4.8 | 0.00 | 0.00 | 0.00 | 96 | 1011.0 |
| 20260510100437 | 10 | 44 | 1.6 | 4.8 | 0.00 | 0.00 | 0.00 | 96 | 1011.0 |
| 20260510095943 | 10 | 355 | 0.0 | 4.8 | 0.00 | 0.00 | 0.00 | 96 | 1011.1 |
| 20260510095437 | 10 | 32 | 1.6 | 4.8 | 0.00 | 0.00 | 0.00 | 96 | 1011.1 |
| 20260510094937 | 10 | 46 | 1.6 | 4.8 | 0.00 | 0.00 | 0.00 | 96 | 1011.1 |
| 20260510094434 | 10 | 34 | 4.8 | 6.4 | 0.00 | 0.00 | 0.00 | 96 | 1011.0 |
| 20260510093937 | 10 | 0 | 1.6 | 4.8 | 0.00 | 0.00 | 0.00 | 96 | 1011.0 |
| 20260510093443 | 10 | 56 | 0.0 | 4.8 | 0.00 | 0.00 | 0.00 | 96 | 1011.0 |
| 20260510092943 | 10 | 325 | 1.6 | 4.8 | 0.00 | 0.00 | 0.00 | 96 | 1011.2 |
| 20260510092434 | 10 | 320 | 4.8 | 4.8 | 0.00 | 0.00 | 0.00 | 96 | 1011.0 |
| 20260510091934 | 10 | 28 | 1.6 | 6.4 | 0.00 | 0.00 | 0.00 | 96 | 1011.0 |
| 20260510091437 | 10 | 301 | 1.6 | 4.8 | 0.00 | 0.00 | 0.00 | 96 | 1011.0 |
| 20260510090937 | 10 | 55 | 4.8 | 9.7 | 0.00 | 0.00 | 0.00 | 96 | 1011.1 |
| 20260510090440 | 10 | 140 | 0.0 | 8.0 | 0.00 | 0.00 | 0.00 | 96 | 1010.7 |
| 20260510085934 | 10 | 338 | 6.4 | 12.9 | 0.00 | 0.00 | 0.00 | 96 | 1011.0 |
| 20260510085434 | 10 | 262 | 0.0 | 12.9 | 0.00 | 0.00 | 0.00 | 96 | 1011.0 |
| 20260510084937 | 10 | 238 | 1.6 | 6.4 | 0.00 | 0.00 | 0.00 | 96 | 1010.5 |
| 20260510084437 | 9 | 315 | 1.6 | 6.4 | 0.00 | 0.00 | 0.00 | 95 | 1010.7 |
| 20260510083934 | 9 | 350 | 0.0 | 0.0 | 0.00 | 0.00 | 0.00 | 96 | 1010.3 |
| 20260510083437 | 9 | 317 | 0.0 | 0.0 | 0.00 | 0.00 | 0.00 | 96 | 1010.3 |
| 20260510082934 | 9 | 308 | 0.0 | 0.0 | 0.00 | 0.00 | 0.00 | 96 | 1010.4 |
| 20260510082434 | 9 | 312 | 0.0 | 0.0 | 0.00 | 0.00 | 0.00 | 96 | 1010.3 |
| 20260510081934 | 9 | 27 | 0.0 | 0.0 | 0.00 | 0.00 | 0.00 | 96 | 1010.3 |
| 20260510081437 | 9 | 27 | 0.0 | 1.6 | 0.00 | 0.00 | 0.00 | 95 | 1010.4 |
| 20260510080938 | 9 | 27 | 0.0 | 0.0 | 0.00 | 0.00 | 0.00 | 95 | 1010.3 |
| 20260510080434 | 10 | 27 | 0.0 | 1.6 | 0.00 | 0.00 | 0.00 | 95 | 1010.3 |
| 20260510075935 | 9 | 27 | 0.0 | 1.6 | 0.00 | 0.00 | 0.00 | 96 | 1010.3 |
| 20260510075434 | 9 | 27 | 0.0 | 0.0 | 0.00 | 0.00 | 0.00 | 95 | 1010.2 |
| 20260510074934 | 9 | 27 | 0.0 | 0.0 | 0.00 | 0.00 | 0.00 | 95 | 1010.2 |
| 20260510074437 | 9 | 27 | 0.0 | 0.0 | 0.00 | 0.00 | 0.00 | 95 | 1010.2 |
| 20260510073937 | 9 | 27 | 0.0 | 0.0 | 0.00 | 0.00 | 0.00 | 95 | 1010.2 |
| 20260510073440 | 9 | 27 | 0.0 | 0.0 | 0.00 | 0.00 | 0.00 | 95 | 1010.2 |
| 20260510072937 | 9 | 27 | 0.0 | 0.0 | 0.00 | 0.00 | 0.00 | 95 | 1010.2 |
| 20260510072434 | 9 | 27 | 0.0 | 0.0 | 0.00 | 0.00 | 0.00 | 95 | 1010.1 |
| 20260510071934 | 9 | 27 | 0.0 | 1.6 | 0.00 | 0.00 | 0.00 | 95 | 1010.1 |
| 20260510071438 | 9 | 27 | 0.0 | 3.2 | 0.00 | 0.00 | 0.00 | 95 | 1010.1 |
| 20260510070937 | 9 | 336 | 0.0 | 1.6 | 0.00 | 0.00 | 0.00 | 95 | 1010.1 |
| 20260510070434 | 9 | 323 | 0.0 | 3.2 | 0.00 | 0.00 | 0.00 | 95 | 1010.0 |
| 20260510065940 | 9 | 318 | 0.0 | 4.8 | 0.00 | 0.00 | 0.00 | 95 | 1009.9 |
| 20260510065437 | 10 | 63 | 0.0 | 1.6 | 0.00 | 0.00 | 0.00 | 95 | 1009.7 |
| 20260510064940 | 10 | 63 | 0.0 | 0.0 | 0.00 | 0.00 | 0.00 | 95 | 1009.6 |
| 20260510064437 | 10 | 63 | 0.0 | 1.6 | 0.00 | 0.00 | 0.00 | 95 | 1009.6 |
| 20260510063935 | 10 | 63 | 0.0 | 1.6 | 0.00 | 0.00 | 0.00 | 95 | 1009.7 |
| 20260510063434 | 10 | 63 | 0.0 | 1.6 | 0.00 | 0.00 | 0.00 | 95 | 1009.6 |
| 20260510062934 | 10 | 63 | 0.0 | 0.0 | 0.00 | 0.00 | 0.00 | 95 | 1009.8 |
| 20260510062437 | 10 | 63 | 0.0 | 1.6 | 0.00 | 0.00 | 0.00 | 95 | 1009.8 |
| 20260510061937 | 10 | 63 | 0.0 | 1.6 | 0.00 | 0.00 | 0.00 | 95 | 1009.8 |
| 20260510061434 | 10 | 63 | 0.0 | 1.6 | 0.00 | 0.00 | 0.00 | 95 | 1009.8 |
| 20260510060934 | 10 | 63 | 0.0 | 1.6 | 0.00 | 0.00 | 0.00 | 95 | 1009.9 |
| 20260510060434 | 10 | 63 | 0.0 | 1.6 | 0.00 | 0.00 | 0.00 | 95 | 1010.0 |
| 20260510055934 | 10 | 63 | 0.0 | 0.0 | 0.00 | 0.00 | 0.00 | 95 | 1009.9 |
| 20260510055434 | 10 | 63 | 0.0 | 0.0 | 0.00 | 0.00 | 0.00 | 95 | 1010.0 |
| 20260510054934 | 10 | 63 | 0.0 | 0.0 | 0.00 | 0.00 | 0.00 | 95 | 1010.1 |
| 20260510054437 | 10 | 63 | 0.0 | 0.0 | 0.00 | 0.00 | 0.00 | 95 | 1010.1 |
| 20260510053935 | 10 | 63 | 0.0 | 0.0 | 0.00 | 0.00 | 0.00 | 95 | 1010.1 |
| 20260510053438 | 10 | 63 | 0.0 | 0.0 | 0.00 | 0.00 | 0.00 | 95 | 1010.2 |
| 20260510052934 | 10 | 63 | 0.0 | 0.0 | 0.00 | 0.00 | 0.00 | 95 | 1010.1 |
| 20260510052437 | 10 | 63 | 0.0 | 0.0 | 0.00 | 0.00 | 0.00 | 95 | 1010.1 |
| 20260510051934 | 10 | 63 | 0.0 | 0.0 | 0.00 | 0.00 | 0.00 | 95 | 1010.2 |
| 20260510051434 | 10 | 63 | 0.0 | 0.0 | 0.00 | 0.00 | 0.00 | 95 | 1010.2 |
| 20260510050934 | 10 | 63 | 0.0 | 0.0 | 0.00 | 0.00 | 0.00 | 95 | 1010.3 |
| 20260510050437 | 10 | 63 | 0.0 | 1.6 | 0.00 | 0.00 | 0.00 | 95 | 1010.3 |
| 20260510045937 | 10 | 63 | 0.0 | 0.0 | 0.00 | 0.00 | 0.00 | 95 | 1010.3 |
| 20260510045434 | 10 | 63 | 0.0 | 0.0 | 0.00 | 0.00 | 0.00 | 95 | 1010.4 |
| 20260510044934 | 10 | 63 | 0.0 | 0.0 | 0.00 | 0.00 | 0.00 | 95 | 1010.4 |
| 20260510044440 | 10 | 63 | 0.0 | 0.0 | 0.00 | 0.00 | 0.00 | 95 | 1010.4 |
| 20260510043937 | 10 | 63 | 0.0 | 1.6 | 0.00 | 0.00 | 0.00 | 95 | 1010.5 |
| 20260510043434 | 10 | 63 | 0.0 | 0.0 | 0.00 | 0.00 | 0.00 | 95 | 1010.6 |
| 20260510042934 | 10 | 63 | 0.0 | 0.0 | 0.00 | 0.00 | 0.00 | 95 | 1010.5 |
| 20260510042434 | 10 | 63 | 0.0 | 0.0 | 0.00 | 0.00 | 0.00 | 95 | 1010.6 |
| 20260510041938 | 10 | 63 | 0.0 | 0.0 | 0.00 | 0.00 | 0.00 | 95 | 1010.6 |
| 20260510041434 | 10 | 63 | 0.0 | 0.0 | 0.00 | 0.00 | 0.00 | 95 | 1010.6 |
| 20260510040937 | 10 | 63 | 0.0 | 0.0 | 0.00 | 0.00 | 0.00 | 95 | 1010.5 |
| 20260510040437 | 10 | 63 | 0.0 | 0.0 | 0.00 | 0.00 | 0.00 | 95 | 1010.5 |
| 20260510035937 | 10 | 63 | 0.0 | 0.0 | 0.00 | 0.00 | 0.00 | 94 | 1010.5 |
| 20260510035434 | 10 | 63 | 0.0 | 0.0 | 0.00 | 0.00 | 0.00 | 95 | 1010.5 |
| 20260510034943 | 10 | 63 | 0.0 | 0.0 | 0.00 | 0.00 | 0.00 | 95 | 1010.3 |
| 20260510034437 | 10 | 63 | 0.0 | 0.0 | 0.00 | 0.00 | 0.00 | 94 | 1010.3 |
| 20260510033934 | 10 | 63 | 0.0 | 0.0 | 0.00 | 0.00 | 0.00 | 94 | 1010.3 |
| 20260510033434 | 10 | 63 | 0.0 | 0.0 | 0.00 | 0.00 | 0.00 | 94 | 1010.2 |
| 20260510032940 | 10 | 63 | 0.0 | 0.0 | 0.00 | 0.00 | 0.00 | 94 | 1010.2 |
| 20260510032437 | 10 | 63 | 0.0 | 0.0 | 0.00 | 0.00 | 0.00 | 94 | 1010.2 |
| 20260510031937 | 10 | 63 | 0.0 | 0.0 | 0.00 | 0.00 | 0.00 | 94 | 1010.1 |
| 20260510031434 | 10 | 63 | 0.0 | 0.0 | 0.00 | 0.00 | 0.00 | 94 | 1010.1 |
| 20260510030943 | 10 | 63 | 0.0 | 0.0 | 0.00 | 0.00 | 0.00 | 94 | 1010.1 |
| 20260510030437 | 10 | 63 | 0.0 | 0.0 | 0.00 | 0.00 | 0.00 | 94 | 1010.1 |
| 20260510025934 | 10 | 63 | 0.0 | 0.0 | 0.00 | 0.00 | 0.00 | 94 | 1010.2 |
| 20260510025437 | 10 | 63 | 0.0 | 0.0 | 0.00 | 0.00 | 0.00 | 94 | 1010.2 |
| 20260510024937 | 11 | 63 | 0.0 | 0.0 | 0.00 | 0.00 | 0.00 | 94 | 1010.1 |
| 20260510024434 | 11 | 63 | 0.0 | 0.0 | 0.00 | 0.00 | 0.00 | 94 | 1010.1 |
| 20260510023937 | 11 | 63 | 0.0 | 0.0 | 0.00 | 0.00 | 0.00 | 94 | 1010.1 |
| 20260510023434 | 11 | 63 | 0.0 | 0.0 | 0.00 | 0.00 | 0.00 | 94 | 1010.1 |
| 20260510022934 | 11 | 63 | 0.0 | 0.0 | 0.00 | 0.00 | 0.00 | 94 | 1010.1 |
| 20260510022437 | 11 | 63 | 0.0 | 0.0 | 0.00 | 0.00 | 0.00 | 94 | 1010.0 |
| 20260510021934 | 11 | 63 | 0.0 | 0.0 | 0.00 | 0.00 | 0.00 | 94 | 1010.0 |
| 20260510021440 | 11 | 63 | 0.0 | 0.0 | 0.00 | 0.00 | 0.00 | 94 | 1010.0 |
| 20260510020935 | 11 | 63 | 0.0 | 0.0 | 0.00 | 0.00 | 0.00 | 94 | 1010.0 |
| 20260510020435 | 11 | 63 | 0.0 | 0.0 | 0.00 | 0.00 | 0.00 | 94 | 1010.0 |
| 20260510015934 | 11 | 63 | 0.0 | 0.0 | 0.00 | 0.00 | 0.00 | 94 | 1009.9 |
| 20260510015437 | 11 | 63 | 0.0 | 0.0 | 0.00 | 0.00 | 0.00 | 94 | 1010.0 |
| 20260510014937 | 11 | 63 | 0.0 | 0.0 | 0.00 | 0.00 | 0.00 | 94 | 1009.9 |
| 20260510014437 | 11 | 63 | 0.0 | 0.0 | 0.00 | 0.00 | 0.00 | 94 | 1009.9 |
| 20260510013940 | 11 | 63 | 0.0 | 0.0 | 0.00 | 0.00 | 0.00 | 94 | 1010.0 |
| 20260510013437 | 11 | 63 | 0.0 | 0.0 | 0.00 | 0.00 | 0.00 | 93 | 1010.1 |
| 20260510012935 | 11 | 63 | 0.0 | 0.0 | 0.00 | 0.00 | 0.00 | 93 | 1010.0 |
| 20260510012435 | 12 | 63 | 0.0 | 0.0 | 0.00 | 0.00 | 0.00 | 93 | 1010.0 |
| 20260510011936 | 12 | 63 | 0.0 | 0.0 | 0.00 | 0.00 | 0.00 | 93 | 1010.0 |
| 20260510011435 | 12 | 63 | 0.0 | 0.0 | 0.00 | 0.00 | 0.00 | 93 | 1009.9 |
| 20260510010934 | 12 | 63 | 0.0 | 0.0 | 0.00 | 0.00 | 0.00 | 93 | 1009.7 |
| 20260510010440 | 12 | 63 | 0.0 | 0.0 | 0.00 | 0.00 | 0.00 | 93 | 1009.6 |
| 20260510005935 | 12 | 63 | 0.0 | 0.0 | 0.00 | 0.00 | 0.00 | 93 | 1009.5 |
| 20260510005435 | 12 | 63 | 0.0 | 0.0 | 0.00 | 0.00 | 0.00 | 93 | 1009.6 |
| 20260510004939 | 12 | 63 | 0.0 | 0.0 | 0.00 | 0.00 | 0.00 | 93 | 1009.6 |
| 20260510004435 | 12 | 63 | 0.0 | 0.0 | 0.00 | 0.00 | 0.00 | 93 | 1009.6 |
| 20260510003938 | 12 | 63 | 0.0 | 0.0 | 0.00 | 0.00 | 0.00 | 92 | 1009.7 |
| 20260510003440 | 12 | 63 | 0.0 | 0.0 | 0.00 | 0.00 | 0.00 | 93 | 1009.6 |
| 20260510002934 | 12 | 63 | 0.0 | 0.0 | 0.00 | 0.00 | 0.00 | 93 | 1009.5 |
| 20260510002435 | 12 | 63 | 0.0 | 1.6 | 0.00 | 0.00 | 0.00 | 92 | 1009.5 |
| 20260510001934 | 12 | 63 | 0.0 | 1.6 | 0.00 | 0.00 | 0.00 | 92 | 1009.5 |
| 20260510001437 | 13 | 63 | 0.0 | 1.6 | 0.00 | 0.00 | 0.00 | 92 | 1009.4 |
| 20260510000940 | 13 | 63 | 0.0 | 0.0 | 0.00 | 0.00 | 0.00 | 92 | 1009.4 |
| 20260510000440 | 13 | 63 | 0.0 | 0.0 | 0.00 | 0.00 | 0.00 | 92 | 1009.5 |
| 20260509235934 | 13 | 63 | 0.0 | 0.0 | 0.00 | 0.00 | 0.00 | 91 | 1009.5 |
| 20260509235440 | 13 | 63 | 0.0 | 0.0 | 0.00 | 0.00 | 0.00 | 91 | 1009.5 |
| 20260509234934 | 13 | 63 | 0.0 | 1.6 | 0.00 | 0.00 | 0.00 | 91 | 1009.4 |
| 20260509234435 | 13 | 63 | 0.0 | 3.2 | 0.00 | 0.00 | 0.00 | 90 | 1009.4 |
| 20260509233940 | 14 | 82 | 0.0 | 1.6 | 0.00 | 0.00 | 0.00 | 90 | 1009.5 |
| 20260509233434 | 14 | 82 | 0.0 | 4.8 | 0.00 | 0.00 | 0.00 | 90 | 1009.4 |
| 20260509232940 | 14 | 106 | 0.0 | 3.2 | 0.00 | 0.00 | 0.00 | 89 | 1009.4 |
| 20260509232435 | 14 | 77 | 0.0 | 3.2 | 0.00 | 0.00 | 0.00 | 90 | 1009.3 |
| 20260509231940 | 14 | 77 | 1.6 | 1.6 | 0.00 | 0.00 | 0.00 | 89 | 1009.3 |
| 20260509231437 | 14 | 77 | 0.0 | 1.6 | 0.00 | 0.00 | 0.00 | 89 | 1009.2 |
| 20260509230940 | 14 | 55 | 0.0 | 4.8 | 0.00 | 0.00 | 0.00 | 89 | 1009.2 |
| 20260509230434 | 14 | 44 | 1.6 | 3.2 | 0.00 | 0.00 | 0.00 | 90 | 1009.2 |
| 20260509225937 | 14 | 51 | 1.6 | 4.8 | 0.00 | 0.00 | 0.00 | 90 | 1009.2 |
| 20260509225434 | 14 | 27 | 1.6 | 3.2 | 0.00 | 0.00 | 0.00 | 90 | 1009.2 |
| 20260509224940 | 14 | 28 | 0.0 | 3.2 | 0.00 | 0.00 | 0.00 | 90 | 1009.2 |
| 20260509224434 | 14 | 89 | 0.0 | 3.2 | 0.00 | 0.00 | 0.00 | 90 | 1009.2 |
| 20260509223940 | 13 | 119 | 0.0 | 4.8 | 0.00 | 0.00 | 0.00 | 89 | 1009.2 |
| 20260509223441 | 13 | 109 | 0.0 | 4.8 | 0.00 | 0.00 | 0.00 | 90 | 1009.3 |
| 20260509222940 | 14 | 147 | 1.6 | 6.4 | 0.00 | 0.00 | 0.00 | 90 | 1009.3 |
| 20260509222434 | 13 | 124 | 0.0 | 1.6 | 0.00 | 0.00 | 0.00 | 90 | 1009.3 |
| 20260509221934 | 14 | 65 | 0.0 | 0.0 | 0.00 | 0.00 | 0.00 | 90 | 1009.4 |
| 20260509221437 | 14 | 53 | 0.0 | 0.0 | 0.00 | 0.00 | 0.00 | 90 | 1009.5 |
| 20260509220937 | 13 | 51 | 0.0 | 1.6 | 0.00 | 0.00 | 0.00 | 89 | 1009.5 |
| 20260509220435 | 13 | 115 | 0.0 | 3.2 | 0.00 | 0.00 | 0.00 | 89 | 1009.4 |
| 20260509215937 | 13 | 61 | 0.0 | 4.8 | 0.00 | 0.00 | 0.00 | 89 | 1009.5 |
| 20260509215437 | 13 | 139 | 4.8 | 3.2 | 0.00 | 0.00 | 0.00 | 89 | 1009.7 |
| 20260509214934 | 14 | 95 | 0.0 | 1.6 | 0.00 | 0.00 | 0.00 | 90 | 1009.9 |
| 20260509214440 | 13 | 95 | 0.0 | 3.2 | 0.00 | 0.00 | 0.00 | 89 | 1010.0 |
| 20260509213937 | 13 | 95 | 0.0 | 3.2 | 0.00 | 0.00 | 0.00 | 89 | 1010.0 |
| 20260509213437 | 13 | 56 | 0.0 | 4.8 | 0.00 | 0.00 | 0.00 | 88 | 1010.0 |
| 20260509212934 | 13 | 98 | 0.0 | 3.2 | 0.00 | 0.00 | 0.00 | 86 | 1009.8 |
| 20260509212443 | 14 | 317 | 4.8 | 3.2 | 0.00 | 0.00 | 0.00 | 84 | 1010.0 |
| 20260509211935 | 15 | 68 | 1.6 | 4.8 | 0.00 | 0.00 | 0.00 | 82 | 1009.9 |
| 20260509211434 | 15 | 355 | 4.8 | 6.4 | 0.00 | 0.00 | 0.00 | 79 | 1010.4 |
| 20260509210934 | 15 | 323 | 6.4 | 6.4 | 0.00 | 0.00 | 0.00 | 78 | 1009.8 |
| 20260509210434 | 15 | 99 | 6.4 | 4.8 | 0.00 | 0.00 | 0.00 | 78 | 1009.6 |
| 20260509205937 | 15 | 342 | 4.8 | 8.0 | 0.00 | 0.00 | 0.00 | 77 | 1009.7 |
| 20260509205434 | 15 | 340 | 1.6 | 11.3 | 0.00 | 0.00 | 0.00 | 77 | 1009.7 |
| 20260509204934 | 15 | 327 | 9.7 | 8.0 | 0.00 | 0.00 | 0.00 | 76 | 1009.7 |
| 20260509204434 | 16 | 250 | 9.7 | 14.5 | 0.00 | 0.00 | 0.00 | 76 | 1009.6 |
| 20260509203937 | 15 | 342 | 9.7 | 12.9 | 0.00 | 0.00 | 0.00 | 76 | 1009.4 |
| 20260509203437 | 16 | 321 | 4.8 | 17.7 | 0.00 | 0.00 | 0.00 | 75 | 1009.3 |
| 20260509202934 | 16 | 40 | 1.6 | 8.0 | 0.00 | 0.00 | 0.00 | 73 | 1009.3 |
| 20260509202440 | 16 | 241 | 1.6 | 14.5 | 0.00 | 0.00 | 0.00 | 73 | 1009.4 |
| 20260509201934 | 16 | 298 | 6.4 | 9.7 | 0.00 | 0.00 | 0.00 | 77 | 1009.4 |
| 20260509201437 | 15 | 48 | 6.4 | 16.1 | 0.00 | 0.00 | 0.00 | 75 | 1009.4 |
| 20260509200937 | 16 | 44 | 6.4 | 8.0 | 0.00 | 0.00 | 0.00 | 75 | 1009.4 |
| 20260509200437 | 15 | 96 | 9.7 | 17.7 | 0.00 | 0.00 | 0.00 | 78 | 1009.4 |
| 20260509195935 | 16 | 325 | 9.7 | 12.9 | 0.00 | 0.00 | 0.00 | 81 | 1009.3 |
| 20260509195434 | 15 | 338 | 11.3 | 14.5 | 0.00 | 0.00 | 0.00 | 79 | 1009.4 |
| 20260509194937 | 16 | 250 | 0.0 | 14.5 | 0.00 | 0.00 | 0.00 | 77 | 1009.4 |
| 20260509194434 | 16 | 269 | 4.8 | 14.5 | 0.00 | 0.00 | 0.00 | 76 | 1009.5 |
| 20260509193934 | 16 | 292 | 9.7 | 22.5 | 0.00 | 0.00 | 0.00 | 75 | 1009.8 |
| 20260509193440 | 16 | 256 | 4.8 | 14.5 | 0.00 | 0.00 | 0.00 | 75 | 1009.8 |
| 20260509192934 | 16 | 250 | 6.4 | 17.7 | 0.00 | 0.00 | 0.00 | 75 | 1009.9 |
| 20260509192434 | 16 | 306 | 1.6 | 12.9 | 0.00 | 0.00 | 0.00 | 75 | 1009.8 |
| 20260509191934 | 16 | 335 | 11.3 | 14.5 | 0.00 | 0.00 | 0.00 | 74 | 1009.9 |
| 20260509191437 | 16 | 313 | 9.7 | 6.4 | 0.00 | 0.00 | 0.00 | 74 | 1010.0 |
| 20260509190934 | 16 | 340 | 1.6 | 14.5 | 0.00 | 0.00 | 0.00 | 72 | 1010.1 |
| 20260509190434 | 17 | 293 | 6.4 | 11.3 | 0.00 | 0.00 | 0.00 | 72 | 1010.0 |
| 20260509185934 | 16 | 161 | 11.3 | 11.3 | 0.00 | 0.00 | 0.00 | 71 | 1010.1 |
| 20260509185434 | 16 | 302 | 4.8 | 12.9 | 0.00 | 0.00 | 0.00 | 72 | 1010.2 |
| 20260509184934 | 16 | 319 | 1.6 | 9.7 | 0.00 | 0.00 | 0.00 | 73 | 1010.2 |
| 20260509184440 | 16 | 347 | 9.7 | 11.3 | 0.00 | 0.00 | 0.00 | 71 | 1010.2 |
| 20260509183937 | 16 | 16 | 4.8 | 11.3 | 0.00 | 0.00 | 0.00 | 69 | 1010.2 |
| 20260509183437 | 16 | 213 | 11.3 | 12.9 | 0.00 | 0.00 | 0.00 | 69 | 1010.3 |
| 20260509182937 | 16 | 351 | 6.4 | 12.9 | 0.00 | 0.00 | 0.00 | 68 | 1010.2 |
| 20260509182437 | 16 | 295 | 19.3 | 19.3 | 0.00 | 0.00 | 0.00 | 68 | 1010.1 |
| 20260509181944 | 17 | 5 | 1.6 | 8.0 | 0.00 | 0.00 | 0.00 | 67 | 1010.0 |
| 20260509181434 | 17 | 281 | 14.5 | 14.5 | 0.00 | 0.00 | 0.00 | 70 | 1010.0 |
| 20260509180937 | 17 | 333 | 4.8 | 9.7 | 0.00 | 0.00 | 0.00 | 72 | 1009.9 |
| 20260509180437 | 17 | 302 | 1.6 | 11.3 | 0.00 | 0.00 | 0.00 | 71 | 1010.0 |
| 20260509175937 | 17 | 319 | 4.8 | 6.4 | 0.00 | 0.00 | 0.00 | 71 | 1010.0 |